[[{"header":{"parameterUnit":"m.s-1","parameterCategory":1,"la1":30.2991,"la2":30.254,"lo1":-89.0895,"lo2":-89.0444,"dx":0.0017,"dy":0.0017,"nx":28,"ny":28,"refTime":"2022-12-14T09:00:00:Z","depth":0,"parameterNumber":2,"parameterNumberName":"U-component_of_WINDS"},"data":[0,0,0,0,0,0,0,0,0,0,0,0,0,0,0,0,0,0,0,0,0,0,0,0,0,0,0,0,0,0,0,0,0,0,0,0,0,0,0,0,0,0,0,0,0,0,0,0,0,0,0,0,0,0,0,0,0,0,-1.1089,-1.109,0,-1.1152,-1.1153,-1.1154,-1.1186,-1.1186,-1.1186,-1.1186,-1.1246,-1.1247,-1.1249,0,0,0,0,0,0,0,0,0,0,0,0,0,-1.0992,-1.0993,-1.1089,-1.109,-1.1091,-1.1152,-1.1153,-1.1154,-1.1186,-1.1186,-1.1186,-1.1186,-1.1245,-1.1247,-1.1249,0,0,0,0,0,0,0,0,0,0,0,0,0,-1.1042,-1.0994,-1.1089,-1.1114,-1.1117,-1.1152,-1.1153,-1.1154,-1.1186,-1.1186,-1.1186,-1.1186,-1.1245,-1.1247,-1.1249,-1.1263,0,0,-1.1257,-1.1258,0,0,0,0,0,0,0,0,-1.1039,-1.1046,-1.111,-1.1113,-1.1116,-1.1161,-1.1141,-1.119,-1.1186,-1.116,-1.1186,-1.1186,-1.1217,-1.1222,-1.1234,-1.1265,-1.1268,-1.1257,-1.1258,-1.1259,-1.126,0,0,0,0,0,0,0,-1.1036,-1.1043,-1.1114,-1.1111,-1.1114,-1.1121,-1.1128,-1.115,-1.1187,-1.1162,-1.1164,-1.1172,-1.1219,-1.1231,-1.1235,-1.1269,-1.1257,-1.1259,-1.126,-1.1261,-1.1313,-1.1313,0,0,0,0,0,0,-1.1029,-1.104,-1.1112,-1.1116,-1.1077,-1.1122,-1.1131,-1.1147,-1.1187,-1.1193,-1.1171,-1.1173,-1.1227,-1.1232,-1.1237,-1.1255,-1.1259,-1.1261,-1.1263,-1.1313,-1.1313,-1.1313,0,0,0,0,0,0,-1.1027,-1.1035,-1.111,-1.1079,-1.1089,-1.1124,-1.1142,-1.1148,-1.116,-1.1194,-1.1201,-1.1177,-1.1227,-1.1234,-1.1256,-1.1257,-1.1262,-1.1265,-1.1313,-1.1313,-1.1313,-1.129,0,0,0,0,0,0,-1.1024,-1.1034,-1.1041,-1.1079,-1.109,-1.1129,-1.1142,-1.1149,-1.1165,-1.1167,-1.1202,-1.1207,-1.1228,-1.1252,-1.1258,-1.1261,-1.1266,-1.1313,-1.1313,-1.1313,-1.129,-1.1289,-1.1287,0,0,0,0,0,-1.102,-1.1031,-1.1041,-1.105,-1.11,-1.1129,-1.1135,-1.116,-1.1165,-1.1171,-1.1192,-1.1206,-1.1256,-1.1254,-1.1261,-1.1264,-1.1313,-1.1313,-1.1313,-1.1291,-1.1289,-1.1287,0,0,0,0,0,0,-1.0992,-1.1037,-1.1048,-1.1072,-1.1097,-1.1134,-1.1143,-1.1157,-1.118,-1.1181,-1.1209,-1.1216,-1.1235,-1.1252,-1.1249,-1.1278,-1.1286,-1.1287,-1.1267,-1.1265,-1.1264,-1.1259,-1.1268,0,0,0,0,0,-1.0989,-1.101,-1.1048,-1.1065,-1.1077,-1.1108,-1.1121,-1.1138,-1.1164,-1.1174,-1.1197,-1.122,-1.1241,-1.1254,-1.1275,-1.1293,-1.13,-1.1298,-1.1296,-1.1295,-1.1296,-1.1305,-1.1304,-1.1312,-1.1312,-1.1312,0,0,-1.0982,-1.1009,-1.1021,-1.106,-1.1081,-1.11,-1.1116,-1.1137,-1.1151,-1.1176,-1.1199,-1.1216,-1.1244,-1.1263,-1.1273,-1.1278,-1.1295,-1.1295,-1.1293,-1.1295,-1.1304,-1.1303,-1.1303,-1.1312,-1.1312,-1.1312,0,0,-1.098,-1.1003,-1.102,-1.104,-1.1071,-1.1092,-1.1095,-1.1131,-1.1144,-1.1167,-1.1186,-1.1202,-1.1237,-1.1256,-1.127,-1.1272,-1.1285,-1.1278,-1.127,-1.1278,-1.1277,-1.1277,-1.1277,-1.1276,-1.1278,-1.1278,-1.1278,0,-1.0967,-1.0999,-1.1026,-1.1046,-1.1061,-1.1086,-1.1102,-1.112,-1.1155,-1.1165,-1.117,-1.1214,-1.1234,-1.1258,-1.1258,-1.1269,-1.1273,-1.1274,-1.1276,-1.1275,-1.1275,-1.1275,-1.1275,-1.1277,-1.1277,-1.1277,-1.1278,0,-1.0981,-1.1003,-1.1012,-1.1048,-1.1064,-1.1082,-1.1109,-1.1123,-1.1137,-1.1156,-1.1178,-1.1203,-1.1228,-1.1235,-1.1249,-1.126,-1.1262,-1.1271,-1.1279,-1.1273,-1.1273,-1.1274,-1.1276,-1.1276,-1.1276,-1.1277,0,0,-1.0965,-1.1013,-1.1016,-1.1032,-1.1067,-1.1084,-1.1101,-1.1127,-1.1137,-1.1161,-1.1175,-1.1203,-1.1211,-1.1227,-1.1243,-1.1251,-1.1249,-1.1259,-1.126,-1.1255,-1.1261,-1.1253,-1.1253,-1.1258,-1.1258,-1.1258,-1.1258,0,-1.0967,-1.1002,-1.1025,-1.1049,-1.1068,-1.1091,-1.1105,-1.1127,-1.1145,-1.1162,-1.1181,-1.12,-1.121,-1.122,-1.1228,-1.1248,-1.1251,-1.1248,-1.127,-1.127,-1.1262,-1.1254,-1.1246,-1.1245,-1.1258,-1.1258,-1.1259,0,-1.0975,-1.0999,-1.1025,-1.1057,-1.1066,-1.1079,-1.1103,-1.112,-1.1145,-1.1157,-1.1173,-1.119,-1.1207,-1.1213,-1.1236,-1.1234,-1.1243,-1.1254,-1.1255,-1.1258,-1.1264,-1.1255,-1.1246,-1.1245,-1.1259,-1.1259,-1.1259,0,-1.096,-1.0997,-1.1018,-1.103,-1.1068,-1.1076,-1.1092,-1.1117,-1.113,-1.1151,-1.116,-1.1182,-1.1194,-1.121,-1.1231,-1.1234,-1.1251,-1.1259,-1.126,-1.126,-1.1263,-1.1263,-1.1254,-1.127,-1.127,-1.127,-1.127,0,-1.096,-1.0975,-1.1011,-1.1023,-1.104,-1.1065,-1.108,-1.1098,-1.1119,-1.1134,-1.1154,-1.1167,-1.1194,-1.121,-1.1226,-1.1241,-1.1247,-1.1256,-1.126,-1.1254,-1.1253,-1.1261,-1.1261,-1.127,-1.127,-1.127,-1.127,0,-1.0946,-1.0971,-1.0994,-1.1027,-1.1036,-1.1046,-1.1074,-1.1086,-1.1104,-1.1122,-1.1127,-1.1155,-1.1174,-1.1197,-1.1223,-1.1234,-1.1248,-1.1254,-1.124,-1.1242,-1.1242,-1.1241,-1.1238,-1.1238,-1.1254,-1.1254,-1.1254,0,-1.0944,-1.0957,-1.0991,-1.1003,-1.1018,-1.1037,-1.1051,-1.1075,-1.1089,-1.1116,-1.1124,-1.1145,-1.1163,-1.1192,-1.1214,-1.1233,-1.124,-1.1237,-1.1243,-1.1236,-1.1239,-1.1238,-1.1239,-1.1236,-1.1236,-1.1235,-1.1235,0,-1.0939,-1.095,-1.097,-1.0994,-1.101,-1.103,-1.105,-1.1058,-1.1086,-1.11,-1.112,-1.1134,-1.1161,-1.118,-1.1202,-1.1217,-1.123,-1.1233,-1.1234,-1.1228,-1.1219,-1.1223,-1.1235,-1.1233,-1.1233,-1.1234,-1.1234,-1.1234,-1.0931,-1.0942,-1.0968,-1.0989,-1.1006,-1.1024,-1.1037,-1.1056,-1.1074,-1.1098,-1.1111,-1.113,-1.1152,-1.1183,-1.1197,-1.1211,-1.1216,-1.1218,-1.1218,-1.1218,-1.1216,-1.1217,-1.1215,-1.1216,-1.1216,-1.1216,-1.1216,0,-1.0926,-1.0943,-1.0962,-1.099,-1.1006,-1.1018,-1.104,-1.1052,-1.1069,-1.1089,-1.1106,-1.1128,-1.1147,-1.1169,-1.1189,-1.1196,-1.1203,-1.12,-1.12,-1.1203,-1.1211,-1.1208,-1.1195,-1.1195,-1.1195,-1.1195,-1.1195,-1.1195,-1.0926,-1.0945,-1.0958,-1.0985,-1.1002,-1.1022,-1.1034,-1.1049,-1.1065,-1.1089,-1.1105,-1.112,-1.114,-1.1161,-1.1178,-1.1184,-1.119,-1.1186,-1.1193,-1.1201,-1.1202,-1.1204,-1.1201,-1.1187,-1.1187,-1.1184,-1.1183,-1.1183]},{"header":{"parameterUnit":"m.s-1","parameterCategory":1,"la1":30.2991,"la2":30.254,"lo1":-89.0895,"lo2":-89.0444,"dx":0.0017,"dy":0.0017,"nx":28,"ny":28,"refTime":"2022-12-14T09:00:00:Z","depth":0,"parameterNumber":3,"parameterNumberName":"V-component_of_WINDS"},"data":[0,0,0,0,0,0,0,0,0,0,0,0,0,0,0,0,0,0,0,0,0,0,0,0,0,0,0,0,0,0,0,0,0,0,0,0,0,0,0,0,0,0,0,0,0,0,0,0,0,0,0,0,0,0,0,0,0,0,7.1113,7.1114,0,7.1168,7.1168,7.1169,7.1172,7.1171,7.1171,7.117,7.1226,7.1228,7.123,0,0,0,0,0,0,0,0,0,0,0,0,0,7.1016,7.1018,7.1113,7.1114,7.1115,7.1168,7.1168,7.1169,7.1172,7.1171,7.117,7.117,7.1225,7.1228,7.123,0,0,0,0,0,0,0,0,0,0,0,0,0,7.1063,7.1018,7.1113,7.1123,7.1124,7.1168,7.1169,7.1169,7.1172,7.1171,7.117,7.1169,7.1224,7.1227,7.1231,7.1269,0,0,7.124,7.1241,0,0,0,0,0,0,0,0,7.1061,7.1067,7.1121,7.1122,7.1124,7.1162,7.1155,7.1203,7.1172,7.1154,7.117,7.1169,7.1206,7.121,7.1222,7.1271,7.1274,7.124,7.1242,7.1244,7.1244,0,0,0,0,0,0,0,7.1057,7.1065,7.1135,7.1121,7.1123,7.1125,7.1131,7.1164,7.1184,7.1155,7.1156,7.1162,7.1206,7.1219,7.1224,7.1275,7.124,7.1243,7.1245,7.1246,7.1364,7.1365,0,0,0,0,0,0,7.1052,7.1062,7.1133,7.1137,7.1089,7.1128,7.1134,7.1151,7.1184,7.1188,7.1163,7.1162,7.1215,7.122,7.1226,7.1277,7.1244,7.1246,7.1248,7.1363,7.1364,7.1366,0,0,0,0,0,0,7.105,7.1058,7.1131,7.1099,7.1109,7.1131,7.1149,7.1152,7.1165,7.119,7.1194,7.1172,7.1214,7.1221,7.1259,7.1278,7.1248,7.1251,7.1361,7.1363,7.1365,7.1376,0,0,0,0,0,0,7.1047,7.1057,7.1071,7.11,7.111,7.1162,7.115,7.1154,7.1171,7.117,7.12,7.1204,7.1214,7.1255,7.1262,7.1282,7.1253,7.136,7.1362,7.1364,7.1374,7.1378,7.1382,0,0,0,0,0,7.1043,7.107,7.1071,7.108,7.1127,7.1163,7.117,7.1181,7.1172,7.1187,7.1204,7.1203,7.1275,7.1259,7.1267,7.1288,7.1358,7.1361,7.1364,7.1372,7.1377,7.1381,0,0,0,0,0,0,7.1042,7.1074,7.1075,7.1112,7.1135,7.1164,7.1182,7.1185,7.121,7.1209,7.1222,7.1229,7.1268,7.1281,7.1263,7.133,7.1316,7.1321,7.1319,7.1324,7.1328,7.1324,7.1256,0,0,0,0,0,7.1046,7.1072,7.1099,7.1129,7.1141,7.116,7.1176,7.1183,7.1207,7.1217,7.1236,7.126,7.1289,7.1307,7.1334,7.1376,7.1385,7.1396,7.1399,7.1402,7.1406,7.1435,7.1441,7.1375,7.1375,7.1375,0,0,7.1054,7.1075,7.109,7.1129,7.1148,7.1176,7.1168,7.1196,7.1219,7.1221,7.1259,7.1275,7.1303,7.1344,7.1363,7.1357,7.1427,7.1406,7.1408,7.1411,7.1439,7.1445,7.1451,7.1377,7.1376,7.1376,0,0,7.1084,7.1101,7.1131,7.1151,7.118,7.1193,7.1201,7.123,7.1241,7.1279,7.1284,7.1311,7.1358,7.138,7.1397,7.1442,7.1444,7.145,7.147,7.1498,7.1503,7.1508,7.1528,7.1534,7.1454,7.1454,7.1454,0,7.1091,7.1133,7.1145,7.1176,7.1195,7.12,7.1232,7.1251,7.1287,7.1301,7.1293,7.1358,7.1376,7.1426,7.1438,7.145,7.1461,7.1447,7.1501,7.1506,7.1511,7.153,7.1537,7.1455,7.1455,7.1455,7.1455,0,7.1142,7.1171,7.1191,7.1229,7.125,7.128,7.13,7.132,7.1327,7.1343,7.1385,7.1409,7.1443,7.1455,7.1461,7.1507,7.1503,7.1498,7.1485,7.1518,7.1536,7.1543,7.1457,7.1456,7.1456,7.1456,0,0,7.1168,7.1216,7.1224,7.1243,7.1279,7.1302,7.1336,7.1371,7.139,7.1416,7.1447,7.149,7.1487,7.1507,7.1516,7.154,7.158,7.1533,7.1534,7.1544,7.1638,7.1643,7.1651,7.1581,7.1583,7.1584,7.1637,0,7.1205,7.1263,7.1278,7.1329,7.1359,7.1368,7.1398,7.1424,7.144,7.147,7.1488,7.152,7.1512,7.1525,7.1549,7.157,7.1599,7.1566,7.1612,7.1614,7.1607,7.166,7.1664,7.1712,7.1643,7.1645,7.1645,0,7.1253,7.1283,7.1338,7.1375,7.1388,7.1414,7.1451,7.1477,7.1509,7.152,7.1545,7.1553,7.1591,7.1576,7.1631,7.1608,7.1629,7.1642,7.1644,7.165,7.1632,7.167,7.1727,7.1736,7.1656,7.1655,7.1654,0,7.1272,7.1326,7.1367,7.1383,7.1425,7.1445,7.1464,7.1494,7.1517,7.1549,7.1565,7.16,7.162,7.1649,7.1669,7.1655,7.1724,7.1708,7.1736,7.1736,7.1751,7.175,7.1815,7.176,7.176,7.176,7.176,0,7.1311,7.1345,7.1376,7.1402,7.1442,7.146,7.15,7.1519,7.1548,7.1579,7.1588,7.1618,7.164,7.1674,7.1689,7.1735,7.1743,7.1755,7.1759,7.1755,7.1754,7.1769,7.1767,7.1762,7.1761,7.1761,7.1761,0,7.1338,7.136,7.1406,7.1444,7.1455,7.1483,7.1517,7.1544,7.1563,7.1603,7.1613,7.1643,7.1683,7.1706,7.1755,7.1766,7.1819,7.1819,7.1808,7.181,7.1838,7.1837,7.1917,7.1931,7.1864,7.1865,7.1865,0,7.1361,7.1388,7.1432,7.1454,7.1474,7.1508,7.1533,7.1554,7.1578,7.1621,7.1643,7.1685,7.1719,7.1784,7.1811,7.1851,7.1855,7.1881,7.1861,7.1858,7.1859,7.1859,7.1864,7.1884,7.1885,7.1885,7.1886,0,7.1403,7.1415,7.1448,7.1488,7.1517,7.1549,7.1581,7.1599,7.1626,7.1654,7.1696,7.1723,7.1777,7.182,7.1863,7.1885,7.1892,7.1892,7.1901,7.1899,7.1893,7.19,7.1821,7.189,7.189,7.1889,7.1889,7.1889,7.1431,7.1458,7.1494,7.1533,7.156,7.1591,7.162,7.1644,7.168,7.1726,7.1737,7.1783,7.182,7.1879,7.1903,7.1941,7.1936,7.1948,7.1952,7.1955,7.1959,7.1886,7.1949,7.1948,7.1948,7.1948,7.1948,0,7.1476,7.1501,7.1537,7.1583,7.1616,7.162,7.1657,7.1684,7.1725,7.1759,7.1794,7.1847,7.189,7.1922,7.1967,7.1992,7.1996,7.2003,7.2002,7.2009,7.1958,7.1947,7.1999,7.1999,7.1999,7.1999,7.1999,7.1999,7.1503,7.155,7.1566,7.1629,7.1654,7.17,7.1722,7.1752,7.178,7.1838,7.1875,7.1896,7.1931,7.198,7.2021,7.203,7.2047,7.2054,7.2064,7.2016,7.2011,7.2006,7.1996,7.2057,7.2057,7.2112,7.2112,7.2112]}]]